Location: Unspecified
(58.7730°N, 5.8460°E)
Time: 15:01:44
(UTC+01:00)

Cosmos 1674 - Visible Passes

Search period start: 01 November 2014 00:00
Search period end: 11 November 2014 00:00
Orbit: 514 x 540 km, 82.5° (Epoch: 31 October)

Date Brightness Start Highest point End Pass type
(mag) Time Alt. Az. Time Alt. Az. Time Alt. Az.
01 Nov 4.6 04:12:47 27° ESE 04:13:37 29° E 04:17:05 10° NNE visible
01 Nov 3.1 05:48:06 30° WSW 05:49:28 42° WNW 05:53:17 10° N visible
02 Nov 4.8 04:02:17 27° E 04:02:17 27° E 04:05:32 10° NNE visible
02 Nov 3.0 05:37:34 44° W 05:37:57 45° WNW 05:41:47 10° N visible
03 Nov 5.1 03:51:36 23° ENE 03:51:36 23° ENE 03:53:58 10° NNE visible
03 Nov 3.1 05:26:53 46° NW 05:26:53 46° NW 05:30:17 10° N visible
03 Nov 4.8 07:02:32 10° WNW 07:03:24 11° NW 07:04:15 10° NW visible
04 Nov 5.4 03:40:47 19° NE 03:40:47 19° NE 03:42:22 10° NE visible
04 Nov 3.6 05:16:03 37° NNW 05:16:03 37° NNW 05:18:46 10° N visible
04 Nov 4.8 06:51:20 11° NW 06:51:48 11° NW 06:53:01 10° NNW visible
05 Nov 5.8 03:29:51 15° NE 03:29:51 15° NE 03:30:46 10° NE visible
05 Nov 4.1 05:05:08 29° N 05:05:08 29° N 05:07:14 10° N visible
05 Nov 4.8 06:40:24 12° NW 06:40:24 12° NW 06:41:41 10° NNW visible
06 Nov 6.0 03:18:51 11° NE 03:18:51 11° NE 03:19:08 10° NE visible
06 Nov 4.6 04:54:07 23° N 04:54:07 23° N 04:55:41 10° N visible
06 Nov 4.9 06:29:23 12° NW 06:29:23 12° NW 06:30:18 10° NNW visible
07 Nov 5.0 04:43:02 18° N 04:43:02 18° N 04:44:07 10° N visible
07 Nov 5.0 06:18:17 12° NNW 06:18:17 12° NNW 06:18:52 10° NNW visible
08 Nov 5.3 04:31:53 14° N 04:31:53 14° N 04:32:32 10° N visible
08 Nov 5.1 06:07:09 11° NNW 06:07:09 11° NNW 06:07:24 10° NNW visible
09 Nov 5.6 04:20:41 12° N 04:20:41 12° N 04:20:56 10° N visible
